Flag for Jordan Weather past 2 weeks in Amman, Jordan

Now
82 °F

Haze.


Feels Like: 81 °F
Forecast: 70 / 89 °F
Wind: 7 mph from Northwest

Location: Amman Airport

Current Time: Aug 31, 2015 at 4:44:47 PM

Latest Report: Aug 31, 2015 at 4:00 PM


Visibility: 3 mi

Pressure: 29.95 "Hg (27.30 "Hg at 816m altitude)

Humidity: 35%

Dew point: 52 °F

Location of AmmanLocation

Historic Weather in Amman — Graph

°F

Amman temperature yesterday

Maximum temperature yesterday: 86 °F (at 3:00 PM)
Minimum temperature yesterday: 68 °F (at 6:00 AM)
Average temperature yesterday: 77 °F

Past Weeks' High & Low Weather Summary

 TemperatureHumidityPressure
High102 °F (Aug 17, 2:00 PM)88% (Aug 22, 7:00 AM)30.01 "Hg (Aug 22, 7:00 AM)
Low68 °F (Aug 23, 6:00 AM)3% (Aug 20, 12:00 PM)29.83 "Hg (Aug 22, 4:00 PM)
Average81 °F44%29.91 "Hg
* Reported Aug 16 3:00 PM — Aug 31 3:00 PM, Amman, Weather by CustomWeather, © 2015

Note: Actual official high and low records may vary slightly from our data, if they occured in-between our weather recording intervals... More about our weather records

Advertising

Amman weather history for previous 24 hours

 ConditionsComfort  
Time TempWeatherWind HumidityBarometerVisibility
3:00 PM
Mon, Aug 31
82 °FHaze.9 mph32%29.95 "Hg3 mi
2:00 PM82 °FHaze.8 mph40%29.95 "Hg3 mi
1:00 PM82 °FHaze.8 mph40%29.98 "Hg3 mi
12:00 PM81 °FHaze.9 mph42%29.98 "Hg3 mi
11:00 AM81 °FHaze.9 mph45%29.98 "Hg3 mi
10:00 AM77 °FHaze.12 mph47%29.95 "Hg3 mi
9:00 AM75 °FHaze.12 mph50%29.95 "Hg3 mi
8:00 AM72 °FHaze.5 mph69%29.95 "Hg3 mi
7:00 AM70 °FHaze.8 mph69%29.92 "Hg3 mi
6:00 AM68 °FHaze.6 mph78%29.92 "Hg2 mi
5:00 AM70 °FHaze.12 mph78%29.92 "Hg3 mi
4:00 AM70 °FPassing clouds.10 mph73%29.92 "Hg4 mi
3:00 AM70 °FPassing clouds.14 mph73%29.92 "Hg4 mi
2:00 AM70 °FClear.12 mph69%29.95 "Hg4 mi
12:00 AM72 °FHaze.9 mph65%29.95 "Hg3 mi
11:00 PM
Sun, Aug 30
72 °FHaze.3 mph65%29.95 "Hg3 mi
10:00 PM73 °FHaze.6 mph57%29.95 "Hg3 mi
9:00 PM73 °FHaze.12 mph57%29.92 "Hg3 mi
8:00 PM75 °FHaze.7 mph50%29.92 "Hg3 mi
7:00 PM79 °FHaze.8 mph45%29.92 "Hg3 mi
6:00 PM82 °FScattered clouds.12 mph35%29.92 "Hg3 mi
5:00 PM84 °FScattered clouds.9 mph33%29.92 "Hg4 mi
4:00 PM86 °FPassing clouds.9 mph33%29.92 "Hg4 mi
Weather by CustomWeather, © 2015

See weather overviewHow to use our weather pages